SL-14 DEB, 47089

Orbit data source: Space-Track

SL-14 DEB, 47089 is space debris in LEO originally from a launch on Thu, 15 Aug 1991 UTC launched from the Plesetsk Missile And Space Complex (PKMTR). Debris objects in space refer to the collection of defunct objects orbiting the Earth. Examples of debris include non-operational satellites, rocket bodies, and fragments generated from explosions, collisions, or faulty payload assembly.

Loading next visibility...
Identifier
47089, 1991-056DP
Orbit
LEO
Country
Flag of CISCIS
Related business
Manufacturer
Unknown
Mission
Spacecraft
Bus & Motor
Unknown
Mass
Unknown
Launch date (UTC)
1991-08-15 (35 years ago)
Launch vehicle
Unknown
Launch site
Plesetsk Missile And Space Complex (PKMTR)
Object type
Payload
Rocket body
Debris
Shape & HBR
Unknown shape, 0.1 m
Radar Cross Section
Small (<0.1 m²)

Expand to show TLE details & history
Last TLE update: 4 days ago

TLE from 4 days ago
0 SL-14 DEB
1 47089U 91056DP  26124.25165720  .00000060  00000-0  80776-4 0  9990
2 47089  82.5976 118.7178 0186630 350.8089   8.9644 13.38389429268509
Epoch: 2026-05-04T06:02Z
TLE epoch observation values (Epoch: 2026-05-04T06:02:23.182Z)
Latitude
-0.00003°
Longitude
165.97767°
Altitude
980.023 km
Speed
7.429 km/s
True Right ascension
07h 54m 52s
True Declination
0° 00' 00"
Sunlit
Object was in daylight at epoch
Visualization orbit readout
Latitude
Unknown
Longitude
Unknown
Altitude
Unknown
Speed
Unknown
Apparent Right ascension
Unknown
Apparent Declination
Unknown
Sunlit
N/A
Visualization observer readout
Local Sidereal Time
18:41:44
Azimuth
Unknown
Elevation
Unknown
Doppler factor
Unknown
Orbital elements
Apogee altitude
1,252.294 km
Perigee altitude
972.699 km
Semi-major axis
7,490.633 km
Eccentricity
0.01866
Inclination
82.5976°
RAAN
118.7178°
Arg. of periapsis
350.8089°
True anomaly
9.30549°
Mean anomaly
8.9644°
Eccentric anomaly
9.13415°
Mean motion
3.34785 °/min
Orbital period
107.53 mins
BSTAR
0.000080776
Loading maneuver chart data...
Computing Atmospheric mass density...
Loading historical data...
Loading historical data...
Loading historical data...
Loading historical data...
Loading historical data...
Loading historical data...
Loading historical data...

Documentation

Showing up to 5 results
|